This is the latest recevied weather packets stored in our database for station/object KI5MKI. If no packets are shown the sender has not sent any weather packets the latest 1 day(s).
| Time | Temp. | Humidity | Pressure | Rain* | Wind** | Luminosity | Snow |
|---|---|---|---|---|---|---|---|
| 1777989272 | 21.67° C | 83% | 1006.1 hPa | 0 mm | 3.58 m/s, 169° | 102 W/m² | - |
| 1777988968 | 21.67° C | 83% | 1005.9 hPa | 0 mm | 3.58 m/s, 155° | 120 W/m² | - |
| 1777988665 | 21.67° C | 83% | 1005.8 hPa | 0 mm | 3.13 m/s, 133° | 92 W/m² | - |
| 1777988361 | 21.67° C | 83% | 1006.1 hPa | 0 mm | 4.47 m/s, 146° | 90 W/m² | - |
| 1777988059 | 21.67° C | 83% | 1006.2 hPa | 0 mm | 2.68 m/s, 148° | 68 W/m² | - |
| 1777987754 | 21.67° C | 83% | 1006.2 hPa | 0 mm | 3.58 m/s, 144° | 50 W/m² | - |
| 1777987452 | 21.67° C | 84% | 1006.2 hPa | 0 mm | 2.68 m/s, 156° | 58 W/m² | - |
| 1777987149 | 21.11° C | 84% | 1005.9 hPa | 0 mm | 1.79 m/s, 167° | 81 W/m² | - |
| 1777986846 | 21.11° C | 84% | 1005.9 hPa | 0 mm | 3.13 m/s, 172° | 57 W/m² | - |
| 1777986543 | 21.11° C | 84% | 1006 hPa | 0 mm | 1.79 m/s, 173° | 67 W/m² | - |
| 1777986241 | 21.11° C | 84% | 1005.8 hPa | 0 mm | 4.02 m/s, 143° | 45 W/m² | - |
| 1777985938 | 21.11° C | 84% | 1005.8 hPa | 0 mm | 4.02 m/s, 152° | 33 W/m² | - |
| 1777985636 | 21.11° C | 84% | 1006.1 hPa | 0 mm | 3.13 m/s, 160° | 25 W/m² | - |
| 1777985332 | 21.11° C | 84% | 1006 hPa | 0 mm | 0.89 m/s, 176° | 26 W/m² | - |
| 1777985029 | 21.11° C | 84% | 1005.9 hPa | 0 mm | 1.79 m/s, 167° | 22 W/m² | - |
| 1777984725 | 21.11° C | 84% | 1005.7 hPa | 0 mm | 3.13 m/s, 154° | 26 W/m² | - |
| 1777984422 | 21.11° C | 84% | 1005.9 hPa | 0 mm | 2.24 m/s, 181° | 15 W/m² | - |
| 1777984118 | 21.11° C | 84% | 1005.9 hPa | 0 mm | 2.68 m/s, 148° | 10 W/m² | - |
| 1777983816 | 21.11° C | 84% | 1005.7 hPa | 0 mm | 3.13 m/s, 143° | 11 W/m² | - |
| 1777983512 | 21.11° C | 84% | 1005.6 hPa | 0 mm | 2.68 m/s, 179° | 14 W/m² | - |
| 1777983209 | 21.11° C | 84% | 1005.6 hPa | 0 mm | 3.58 m/s, 168° | 15 W/m² | - |
| 1777982905 | 21.11° C | 84% | 1005.7 hPa | 0 mm | 2.24 m/s, 164° | 9 W/m² | - |
| 1777982601 | 21.11° C | 84% | 1005.4 hPa | 0 mm | 4.92 m/s, 148° | 8 W/m² | - |
| 1777982300 | 21.11° C | 83% | 1005.3 hPa | 0 mm | 3.13 m/s, 139° | 6 W/m² | - |
| 1777981997 | 21.11° C | 83% | 1005.4 hPa | 0 mm | 3.58 m/s, 148° | 5 W/m² | - |
* Rain latest hour (hover to see other rain measurements)
** Current wind speed in m/s (hover to see current wind gust speed)